Home > Weather > Tábor > Past weeks

Flag for Czech Republic Past Weather in Tábor, Czech Republic — Yesterday and Last 2 Weeks

Now
57 °F

Cool.


Feels Like: 57 °F
Forecast: 57 / 76 °F
Wind: 5 mph from East

Location: Kocelovice

Current Time: May 29, 2016 at 12:25:45 AM

Latest Report: May 28, 2016 at 11:00 PM


Visibility: 10 mi

Pressure: 29.85 "Hg

Humidity: 93%

Dew Point: 55 °F

Location of TáborLocation

Past Weather in Tábor — Graph

°F

Tábor Temperature Yesterday

Maximum temperature yesterday: 72 °F (at 2:00 PM)
Minimum temperature yesterday: 55 °F (at 5:00 AM)
Average temperature yesterday: 62 °F

High & Low Weather Summary for the Past Weeks

 TemperatureHumidityPressure
High81 °F (May 22, 4:00 PM)99% (May 24, 6:00 AM)30.16 "Hg (May 24, 6:00 AM)
Low36 °F (May 15, 4:00 AM)27% (May 22, 5:00 PM)29.50 "Hg (May 13, 11:00 PM)
Average55 °F70%29.92 "Hg
* Reported May 13 11:00 PM — May 28 11:00 PM, Tábor, Weather by CustomWeather, © 2016

Note: Actual official high and low records may vary slightly from our data, if they occured in-between our weather recording intervals... More about our weather records

Advertising

Tábor Weather History for the Previous 24 Hours

Scroll right to see more
 ConditionsComfort  
Time TempWeatherWind HumidityBarometerVisibility
11:00 PM
Sat, May 28
57 °FCool.5 mph93%29.85 "Hg10 mi
10:00 PM61 °FPassing clouds.1 mph87%29.85 "Hg16 mi
9:00 PM63 °FPassing clouds.2 mph81%29.85 "Hg22 mi
8:00 PM65 °FPartly sunny.2 mph77%29.84 "Hg28 mi
5:00 PM66 °FLight rain. Overcast.N/A79%29.85 "Hg14 mi
4:00 PM65 °FLight rain. Overcast.N/A80%29.87 "Hg14 mi
3:00 PM66 °FThundershowers. Overcast.3 mph77%29.88 "Hg5 mi
2:00 PM72 °FThunderstorms. Partly sunny.5 mph62%29.85 "Hg13 mi
1:00 PM72 °FThunderstorms. Partly sunny.5 mph63%29.87 "Hg12 mi
12:00 PM70 °FScattered clouds.N/A71%29.88 "Hg12 mi
11:00 AM68 °FPartly sunny.N/A76%29.90 "Hg11 mi
8:00 AM63 °FPartly sunny.N/A81%29.92 "Hg8 mi
7:00 AM59 °FCool.2 mph86%29.93 "Hg9 mi
6:00 AM56 °FCool.2 mph89%29.94 "Hg9 mi
5:00 AM55 °FCool.1 mph90%29.94 "Hg12 mi
4:00 AM55 °FCool.1 mph93%29.95 "Hg8 mi
3:00 AM58 °FCool.2 mph80%29.95 "Hg12 mi
2:00 AM58 °FCool.3 mph81%29.96 "Hg12 mi
1:00 AM59 °FCool.2 mph82%29.96 "Hg12 mi
12:00 AM60 °FCool.3 mph79%29.96 "Hg12 mi
Weather by CustomWeather, © 2016

See weather overviewHow to use our weather pages